This is the latest recevied weather packets stored in our database for station/object N8XHB. If no packets are shown the sender has not sent any weather packets the latest 10 day(s).
| Time | Temp. | Humidity | Pressure | Rain* | Wind** | Luminosity | Snow |
|---|---|---|---|---|---|---|---|
| 1777423643 | 12.22° C | 68% | 1013 hPa | 0 mm | - | 1 W/m² | - |
| 1777423338 | 12.22° C | 67% | 1013 hPa | 0 mm | - | 2 W/m² | - |
| 1777423034 | 12.78° C | 67% | 1013.2 hPa | 0 mm | - | 3 W/m² | - |
| 1777422730 | 12.78° C | 66% | 1012.9 hPa | 0 mm | - | 5 W/m² | - |
| 1777422430 | 12.78° C | 66% | 1012.7 hPa | 0 mm | - | 7 W/m² | - |
| 1777422125 | 12.78° C | 66% | 1012.8 hPa | 0 mm | - | 10 W/m² | - |
| 1777421824 | 12.78° C | 65% | 1013.1 hPa | 0 mm | - | 12 W/m² | - |
| 1777421520 | 13.33° C | 64% | 1013.2 hPa | 0 mm | - | 15 W/m² | - |
| 1777421216 | 13.33° C | 64% | 1012.9 hPa | 0 mm | - | 18 W/m² | - |
| 1777420913 | 13.33° C | 64% | 1012.9 hPa | 0 mm | - | 18 W/m² | - |
| 1777420609 | 13.33° C | 64% | 1013 hPa | 0 mm | - | 21 W/m² | - |
| 1777420306 | 13.33° C | 63% | 1013 hPa | 0 mm | - | 23 W/m² | - |
| 1777420000 | 13.33° C | 63% | 1013 hPa | 0 mm | - | 25 W/m² | - |
| 1777419698 | 13.89° C | 62% | 1012.9 hPa | 0 mm | - | 29 W/m² | - |
| 1777419396 | 13.89° C | 62% | 1012.9 hPa | 0 mm | - | 37 W/m² | - |
| 1777419096 | 13.89° C | 62% | 1012.8 hPa | 0 mm | - | 29 W/m² | - |
| 1777418794 | 13.89° C | 61% | 1012.5 hPa | 0 mm | - | 29 W/m² | - |
| 1777418492 | 13.89° C | 61% | 1012.7 hPa | 0 mm | - | 31 W/m² | - |
| 1777418188 | 13.89° C | 60% | 1012.8 hPa | 0 mm | - | 33 W/m² | - |
| 1777417884 | 13.89° C | 60% | 1013 hPa | 0 mm | - | 35 W/m² | - |
| 1777417581 | 13.89° C | 60% | 1012.6 hPa | 0 mm | - | 38 W/m² | - |
| 1777417276 | 13.89° C | 60% | 1012.8 hPa | 0 mm | - | 41 W/m² | - |
| 1777416972 | 14.44° C | 59% | 1013.2 hPa | 0 mm | - | 39 W/m² | - |
| 1777416673 | 14.44° C | 59% | 1013.3 hPa | 0 mm | - | 40 W/m² | - |
| 1777416369 | 14.44° C | 60% | 1013.4 hPa | 0 mm | - | 41 W/m² | - |
* Rain latest hour (hover to see other rain measurements)
** Current wind speed in m/s (hover to see current wind gust speed)